This demonstration page uses our WeatherBlox Daily Observations layout. Learn more.

Left ArrowRight Arrow

Hourly Observations for December 29, 2020

Temp ( °F °C ) Dew Point ( °F °C ) Humidity (%) Winds ( mph kmh ) Pressure ( in mb ) Visibility ( mi km ) Precip ( " mm )
12:15 am 00:15 Cloudy with Light Snow 27 -2.8 25 -3.7 94 94 SE 13 20 30.36 1028 3 4 N/A
12:35 am 00:35 Cloudy with Light Snow 27 -2.8 25 -3.7 94 94 SE 14 22 30.36 1028 2 3 N/A
12:55 am 00:55 Cloudy with Light Snow 27 -3 25 -4 93 93 SE 15 24 30.35 1028 5 8 N/A
1:15 am 01:15 Cloudy with Light Snow 27 -3 25 -4 93 93 ESE 15 24 30.34 1028 3 5 N/A
1:35 am 01:35 Cloudy with Light Snow 27 -3 25 -4 93 93 SE 15 24 30.33 1027 3 4 N/A
1:55 am 01:55 Cloudy with Light Snow 27 -3 25 -3.8 94 94 SE 13 20 30.33 1027 3 4 0.01 0.25
2:15 am 02:15 Cloudy with Light Snow 27 -3 25 -3.8 94 94 SE 14 22 30.32 1027 2 3 N/A
2:35 am 02:35 Cloudy with Light Snow 27 -3 25 -3.9 94 94 ESE 12 19 30.31 1027 1 2 N/A
2:55 am 02:55 Cloudy with Light Snow 27 -3 25 -3.9 94 94 SE 14 22 30.31 1027 2 3 0.01 0.25
3:15 am 03:15 Cloudy with Light Snow 27 -3 25 -4 93 93 ESE 13 20 30.30 1026 2 2 N/A
3:35 am 03:35 Cloudy with Light Snow 26 -3.1 25 -4 94 94 ESE 14 22 30.30 1026 3 5 N/A
3:55 am 03:55 Cloudy with Light Snow 26 -3.1 25 -4 94 94 ESE 16 26 30.28 1025 5 8 N/A
4:15 am 04:15 Cloudy with Light Snow 26 -3.2 25 -4.1 94 94 ESE 18 30 30.26 1025 5 8 N/A
4:35 am 04:35 Cloudy 26 -3.2 25 -4.1 94 94 ESE 18 30 30.25 1024 7 11 N/A
4:55 am 04:55 Cloudy with Light Snow 26 -3.2 24 -4.2 93 93 ESE 17 28 30.25 1024 5 8 N/A
5:15 am 05:15 Windy with Snow Likely 26 -3.5 24 -4.5 93 93 ESE 20 31 30.22 1023 2 3 N/A
5:35 am 05:35 Windy with Snow Likely 26 -3.5 24 -4.5 93 93 ESE 21 33 30.22 1023 2 2 N/A
5:55 am 05:55 Windy with Snow Likely 25 -3.8 24 -4.7 94 94 ESE 22 35 30.20 1023 1 2 0.01 0.25
6:15 am 06:15 Cloudy with Light Snow 25 -3.8 24 -4.7 94 94 SE 18 30 30.20 1023 2 3 N/A
6:35 am 06:35 Windy with Snow Likely 25 -4 23 -5 93 93 SE 20 31 30.19 1022 1 2 N/A
6:55 am 06:55 Windy with Snow Likely 25 -4 23 -5 93 93 SE 24 39 30.16 1021 2 3 N/A
7:15 am 07:15 Windy with Snow Likely 25 -4 23 -5 93 93 SE 23 37 30.15 1021 2 3 N/A
7:35 am 07:35 Windy with Snow Likely 25 -4 23 -5 93 93 SE 22 35 30.15 1021 3 5 0.01 0.25
7:55 am 07:55 Windy with Snow Likely 25 -3.9 23 -4.8 94 94 SE 23 37 30.13 1020 2 3 0.01 0.25
8:15 am 08:15 Windy with Snow Likely 25 -3.8 24 -4.7 94 94 SE 22 35 30.13 1020 2 2 0.01 0.25
8:35 am 08:35 Windy with Snow Likely 25 -3.8 24 -4.7 94 94 SE 23 37 30.12 1020 1 2 0.02 0.51
8:55 am 08:55 Windy with Snow Likely 25 -3.8 24 -4.7 94 94 SE 21 33 30.13 1020 1 2 0.02 0.51
9:15 am 09:15 Cloudy with Light Snow 26 -3.6 24 -4.5 94 94 SE 17 28 30.13 1020 2 3 N/A
9:35 am 09:35 Cloudy with Light Snow 26 -3.5 24 -4.5 93 93 SE 17 28 30.11 1020 3 4 N/A
9:55 am 09:55 Cloudy with Light Snow 26 -3.6 24 -4.5 94 94 SE 18 30 30.11 1020 3 4 N/A
10:15 am 10:15 Cloudy with Light Snow 26 -3.5 24 -4.5 93 93 SE 14 22 30.11 1020 3 5 N/A
10:35 am 10:35 Cloudy with Light Snow 26 -3.5 24 -4.3 94 94 SE 15 24 30.10 1019 4 6 N/A
10:55 am 10:55 Cloudy with Mist and Fog 26 -3.4 24 -4.2 94 94 SE 15 24 30.09 1019 5 8 0.01 0.25
11:15 am 11:15 Cloudy with Mist and Fog 26 -3.2 25 -4 94 94 SSE 12 19 30.09 1019 4 6 0.01 0.25
11:35 am 11:35 Cloudy 27 -3 25 -3.7 95 95 SSE 12 19 30.05 1018 7 11 0.03 0.76
11:55 am 11:55 Cloudy with Mist and Fog 27 -2.8 26 -3.5 95 95 SSE 8 13 30.05 1018 4 6 0.04 1.02
12:15 pm 12:15 Cloudy with Mist and Fog 27 -2.6 26 -3.3 95 95 SSE 8 13 30.03 1017 4 6 N/A
12:35 pm 12:35 Cloudy with Mist and Fog 28 -2.5 27 -3 96 96 SSE 6 9 30.02 1017 3 4 N/A
12:55 pm 12:55 Cloudy with Mist and Fog 28 -2 28 -2.5 96 96 SSE 8 13 29.99 1016 3 5 0.01 0.25
1:15 pm 13:15 Cloudy with Mist and Fog 29 -1.5 28 -2 96 96 S 10 17 29.98 1015 3 5 N/A
1:35 pm 13:35 Cloudy with Mist and Fog 30 -1.1 29 -1.7 96 96 S 8 13 29.96 1015 4 6 N/A
1:55 pm 13:55 Cloudy with Mist and Fog 30 -0.9 29 -1.5 96 96 S 8 13 29.95 1014 3 5 N/A
2:15 pm 14:15 Cloudy with Mist and Fog 31 -0.7 29 -1.5 94 94 S 3 6 29.95 1014 4 6 N/A
2:35 pm 14:35 Cloudy with Mist and Fog 31 -0.7 29 -1.5 94 94 SSW 5 7 29.95 1014 3 5 N/A
2:55 pm 14:55 Cloudy with Mist and Fog 31 -0.7 29 -1.5 94 94 SW 3 6 29.95 1014 2 3 N/A
3:15 pm 15:15 Cloudy with Mist and Fog 31 -0.7 30 -1.3 96 96 SW 3 6 29.95 1014 2 3 N/A
3:35 pm 15:35 Cloudy with Mist and Fog 31 -0.6 30 -1.2 96 96 W 6 9 29.95 1014 3 4 N/A
3:55 pm 15:55 Cloudy with Mist and Fog 31 -0.6 30 -1.3 95 95 W 6 9 29.95 1014 3 4 N/A
4:15 pm 16:15 Cloudy with Mist and Fog 31 -0.6 29 -1.4 94 94 W 5 7 29.95 1014 4 6 N/A
4:35 pm 16:35 Cloudy with Mist and Fog 31 -0.7 29 -1.4 95 95 W 3 6 29.96 1015 4 6 N/A
4:55 pm 16:55 Cloudy 31 -0.7 30 -1.3 96 96 W 6 9 29.96 1015 7 11 N/A
5:15 pm 17:15 Cloudy 30 -1 29 -1.5 96 96 WNW 5 7 29.97 1015 7 11 N/A
5:35 pm 17:35 Cloudy with Mist and Fog 30 -1 29 -1.5 96 96 NW 6 9 29.98 1015 5 8 N/A
5:55 pm 17:55 Cloudy with Mist and Fog 30 -1 29 -1.5 96 96 NW 6 9 29.99 1016 4 6 N/A
6:15 pm 18:15 Cloudy 30 -1 29 -1.5 96 96 WNW 6 9 30.00 1016 7 11 N/A
6:35 pm 18:35 Cloudy 30 -1 29 -1.5 96 96 WNW 7 11 30.00 1016 10 16 N/A
6:55 pm 18:55 Cloudy 30 -1.1 29 -1.7 96 96 W 6 9 30.02 1016 10 16 N/A
7:15 pm 19:15 Mostly Cloudy 29 -1.9 27 -2.6 95 95 W 8 13 30.02 1017 10 16 N/A
7:35 pm 19:35 Clear 28 -2.5 26 -3.1 96 96 W 6 9 30.04 1017 10 16 N/A
7:55 pm 19:55 Clear 27 -3 25 -3.7 95 95 W 9 15 30.05 1018 10 16 N/A
8:15 pm 20:15 Partly Cloudy 25 -3.7 24 -4.5 94 94 W 8 13 30.07 1018 10 16 N/A
8:35 pm 20:35 Partly Cloudy 26 -3.5 24 -4.2 95 95 W 9 15 30.08 1019 7 11 N/A
8:55 pm 20:55 Mostly Cloudy 26 -3.2 25 -4 94 94 W 9 15 30.09 1019 10 16 N/A
9:15 pm 21:15 Cloudy 28 -2.5 26 -3.5 93 93 WNW 12 19 30.09 1019 10 16 N/A
9:35 pm 21:35 Cloudy 31 -0.8 27 -2.6 88 88 NW 13 20 30.07 1018 10 16 N/A
9:55 pm 21:55 Cloudy 32 undefined 27 -2.6 83 83 NW 18 30 30.07 1018 10 16 N/A
10:15 pm 22:15 Cloudy 32 0.1 27 -2.7 82 82 NW 17 28 30.08 1019 10 16 N/A
10:35 pm 22:35 Cloudy 32 -0.1 27 -3 81 81 NNW 16 26 30.10 1019 10 16 N/A
10:55 pm 22:55 Cloudy 32 undefined 27 -2.8 82 82 NW 14 22 30.09 1019 10 16 N/A
11:15 pm 23:15 Cloudy 32 0.1 27 -3 80 80 NNW 17 28 30.09 1019 10 16 N/A
11:35 pm 23:35 Mostly Cloudy 32 0.2 26 -3.1 79 79 NNW 15 24 30.10 1019 10 16 N/A
11:55 pm 23:55 Partly Cloudy 32 -0.2 26 -3.6 78 78 NW 13 20 30.11 1020 10 16 N/A

Powered by AerisWeather